Year,Month,Day,Hour,Minute,Value (Times are PST for temperature in C)
2009,09,30,00,00,7.00
2009,09,30,00,01,7.00
2009,09,30,00,02,6.90
2009,09,30,00,03,7.00
2009,09,30,00,04,6.90
2009,09,30,00,05,6.90
2009,09,30,00,06,6.80
2009,09,30,00,07,6.70
2009,09,30,00,08,6.60
2009,09,30,00,09,6.50
2009,09,30,00,10,6.40
2009,09,30,00,11,6.40
2009,09,30,00,12,6.40
2009,09,30,00,13,6.40
2009,09,30,00,14,6.40
2009,09,30,00,15,6.50
2009,09,30,00,16,6.60
2009,09,30,00,17,6.60
2009,09,30,00,18,6.70
2009,09,30,00,19,6.70
2009,09,30,00,20,6.70
2009,09,30,00,21,6.70
2009,09,30,00,22,6.80
2009,09,30,00,23,6.80
2009,09,30,00,24,6.80
2009,09,30,00,25,6.80
2009,09,30,00,26,6.70
2009,09,30,00,27,6.70
2009,09,30,00,28,6.70
2009,09,30,00,29,6.70
2009,09,30,00,30,6.60
2009,09,30,00,31,6.50
2009,09,30,00,32,6.30
2009,09,30,00,33,6.40
2009,09,30,00,34,6.40
2009,09,30,00,35,6.40
2009,09,30,00,36,6.40
2009,09,30,00,37,6.40
2009,09,30,00,38,6.40
2009,09,30,00,39,6.40
2009,09,30,00,40,6.40
2009,09,30,00,41,6.40
2009,09,30,00,42,6.50
2009,09,30,00,43,6.60
2009,09,30,00,44,6.60
2009,09,30,00,45,6.60
2009,09,30,00,46,6.60
2009,09,30,00,47,6.50
2009,09,30,00,48,6.40
2009,09,30,00,49,6.40
2009,09,30,00,50,6.50
2009,09,30,00,51,6.60
2009,09,30,00,52,6.60
2009,09,30,00,53,6.70
2009,09,30,00,54,6.70
2009,09,30,00,55,6.80
2009,09,30,00,56,6.80
2009,09,30,00,57,6.80
2009,09,30,00,58,6.90
2009,09,30,00,59,6.90
2009,09,30,01,00,7.00
2009,09,30,01,01,7.00
2009,09,30,01,02,6.90
2009,09,30,01,03,6.90
2009,09,30,01,04,6.90
2009,09,30,01,05,6.90
2009,09,30,01,06,6.90
2009,09,30,01,07,6.90
2009,09,30,01,08,6.90
2009,09,30,01,09,6.90
2009,09,30,01,10,6.90
2009,09,30,01,11,7.00
2009,09,30,01,12,7.10
2009,09,30,01,13,7.10
2009,09,30,01,14,7.00
2009,09,30,01,15,7.00
2009,09,30,01,16,7.00
2009,09,30,01,17,6.90
2009,09,30,01,18,6.90
2009,09,30,01,19,6.80
2009,09,30,01,20,6.80
2009,09,30,01,21,6.70
2009,09,30,01,22,6.70
2009,09,30,01,23,6.70
2009,09,30,01,24,6.70
2009,09,30,01,25,6.80
2009,09,30,01,26,6.80
2009,09,30,01,27,6.90
2009,09,30,01,28,6.90
2009,09,30,01,29,6.80
2009,09,30,01,30,6.80
2009,09,30,01,31,6.70
2009,09,30,01,32,6.60
2009,09,30,01,33,6.60
2009,09,30,01,34,6.60
2009,09,30,01,35,6.60
2009,09,30,01,36,6.60
2009,09,30,01,37,6.60
2009,09,30,01,38,6.60
2009,09,30,01,39,6.60
2009,09,30,01,40,6.50
2009,09,30,01,41,6.50
2009,09,30,01,42,6.40
2009,09,30,01,43,6.40
2009,09,30,01,44,6.40
2009,09,30,01,45,6.40
2009,09,30,01,46,6.40
2009,09,30,01,47,6.50
2009,09,30,01,48,6.50
2009,09,30,01,49,6.50
2009,09,30,01,50,6.60
2009,09,30,01,51,6.50
2009,09,30,01,52,6.40
2009,09,30,01,53,6.50
2009,09,30,01,54,6.50
2009,09,30,01,55,6.60
2009,09,30,01,56,6.60
2009,09,30,01,57,6.60
2009,09,30,01,58,6.60
2009,09,30,01,59,6.70
2009,09,30,02,00,6.80
2009,09,30,02,01,6.80
2009,09,30,02,02,6.90
2009,09,30,02,03,6.90
2009,09,30,02,04,7.00
2009,09,30,02,05,7.00
2009,09,30,02,06,7.00
2009,09,30,02,07,7.00
2009,09,30,02,08,7.10
2009,09,30,02,09,7.20
2009,09,30,02,10,7.20
2009,09,30,02,11,7.10
2009,09,30,02,12,7.20
2009,09,30,02,13,7.30
2009,09,30,02,14,7.40
2009,09,30,02,15,7.50
2009,09,30,02,16,7.60
2009,09,30,02,17,7.60
2009,09,30,02,18,7.60
2009,09,30,02,19,7.50
2009,09,30,02,20,7.40
2009,09,30,02,21,7.30
2009,09,30,02,22,7.20
2009,09,30,02,23,7.20
2009,09,30,02,24,7.20
2009,09,30,02,25,7.20
2009,09,30,02,26,7.10
2009,09,30,02,27,7.00
2009,09,30,02,28,6.80
2009,09,30,02,29,6.60
2009,09,30,02,30,6.40
2009,09,30,02,31,6.20
2009,09,30,02,32,6.10
2009,09,30,02,33,6.00
2009,09,30,02,34,5.90
2009,09,30,02,35,5.90
2009,09,30,02,36,5.80
2009,09,30,02,37,5.70
2009,09,30,02,38,5.60
2009,09,30,02,39,5.50
2009,09,30,02,40,5.40
2009,09,30,02,41,5.40
2009,09,30,02,42,5.40
2009,09,30,02,43,5.40
2009,09,30,02,44,5.40
2009,09,30,02,45,5.40
2009,09,30,02,46,5.30
2009,09,30,02,47,5.10
2009,09,30,02,48,5.10
2009,09,30,02,49,5.10
2009,09,30,02,50,5.10
2009,09,30,02,51,5.20
2009,09,30,02,52,5.30
2009,09,30,02,53,5.40
2009,09,30,02,54,5.50
2009,09,30,02,55,5.60
2009,09,30,02,56,5.60
2009,09,30,02,57,5.80
2009,09,30,02,58,5.90
2009,09,30,02,59,6.00
2009,09,30,03,00,6.10
2009,09,30,03,01,6.20
2009,09,30,03,02,6.30
2009,09,30,03,03,6.40
2009,09,30,03,04,6.50
2009,09,30,03,05,6.60
2009,09,30,03,06,6.70
2009,09,30,03,07,6.90
2009,09,30,03,08,7.00
2009,09,30,03,09,7.20
2009,09,30,03,10,7.30
2009,09,30,03,11,7.40
2009,09,30,03,12,7.50
2009,09,30,03,13,7.50
2009,09,30,03,14,7.50
2009,09,30,03,15,7.50
2009,09,30,03,16,7.50
2009,09,30,03,17,7.40
2009,09,30,03,18,7.40
2009,09,30,03,19,7.20
2009,09,30,03,20,7.00
2009,09,30,03,21,6.80
2009,09,30,03,22,6.70
2009,09,30,03,23,6.60
2009,09,30,03,24,6.50
2009,09,30,03,25,6.40
2009,09,30,03,26,6.30
2009,09,30,03,27,6.20
2009,09,30,03,28,6.10
2009,09,30,03,29,6.10
2009,09,30,03,30,6.10
2009,09,30,03,31,6.10
2009,09,30,03,32,6.00
2009,09,30,03,33,6.00
2009,09,30,03,34,5.90
2009,09,30,03,35,5.90
2009,09,30,03,36,5.80
2009,09,30,03,37,5.70
2009,09,30,03,38,5.70
2009,09,30,03,39,5.60
2009,09,30,03,40,5.50
2009,09,30,03,41,5.40
2009,09,30,03,42,5.30
2009,09,30,03,43,5.20
2009,09,30,03,44,5.10
2009,09,30,03,45,5.20
2009,09,30,03,46,5.40
2009,09,30,03,47,5.40
2009,09,30,03,48,5.50
2009,09,30,03,49,5.60
2009,09,30,03,50,5.70
2009,09,30,03,51,5.80
2009,09,30,03,52,5.80
2009,09,30,03,53,5.80
2009,09,30,03,54,5.80
2009,09,30,03,55,5.70
2009,09,30,03,56,5.70
2009,09,30,03,57,5.70
2009,09,30,03,58,5.50
2009,09,30,03,59,5.40
2009,09,30,04,00,5.30
2009,09,30,04,01,5.20
2009,09,30,04,02,5.20
2009,09,30,04,03,5.10
2009,09,30,04,04,5.10
2009,09,30,04,05,5.10
2009,09,30,04,06,5.10
2009,09,30,04,07,5.20
2009,09,30,04,08,5.20
2009,09,30,04,09,5.20
2009,09,30,04,10,5.20
2009,09,30,04,11,5.20
2009,09,30,04,12,5.20
2009,09,30,04,13,5.30
2009,09,30,04,14,5.30
2009,09,30,04,15,5.30
2009,09,30,04,16,5.30
2009,09,30,04,17,5.30
2009,09,30,04,18,5.20
2009,09,30,04,19,5.20
2009,09,30,04,20,5.30
2009,09,30,04,21,5.20
2009,09,30,04,22,5.20
2009,09,30,04,23,5.20
2009,09,30,04,24,5.30
2009,09,30,04,25,5.30
2009,09,30,04,26,5.40
2009,09,30,04,27,5.40
2009,09,30,04,28,5.40
2009,09,30,04,29,5.30
2009,09,30,04,30,5.30
2009,09,30,04,31,5.30
2009,09,30,04,32,5.20
2009,09,30,04,33,5.20
2009,09,30,04,34,5.10
2009,09,30,04,35,5.10
2009,09,30,04,36,5.20
2009,09,30,04,37,5.30
2009,09,30,04,38,5.20
2009,09,30,04,39,5.20
2009,09,30,04,40,5.20
2009,09,30,04,41,5.20
2009,09,30,04,42,5.10
2009,09,30,04,43,5.10
2009,09,30,04,44,5.20
2009,09,30,04,45,5.30
2009,09,30,04,46,5.20
2009,09,30,04,47,5.20
2009,09,30,04,48,5.20
2009,09,30,04,49,5.20
2009,09,30,04,50,5.20
2009,09,30,04,51,5.00
2009,09,30,04,52,4.90
2009,09,30,04,53,4.80
2009,09,30,04,54,4.90
2009,09,30,04,55,4.90
2009,09,30,04,56,4.90
2009,09,30,04,57,4.90
2009,09,30,04,58,4.80
2009,09,30,04,59,4.90
2009,09,30,05,00,4.80
2009,09,30,05,01,4.90
2009,09,30,05,02,4.90
2009,09,30,05,03,4.90
2009,09,30,05,04,4.80
2009,09,30,05,05,4.90
2009,09,30,05,06,5.10
2009,09,30,05,07,5.10
2009,09,30,05,08,5.10
2009,09,30,05,09,5.00
2009,09,30,05,10,4.90
2009,09,30,05,11,5.00
2009,09,30,05,12,5.10
2009,09,30,05,13,5.10
2009,09,30,05,14,5.10
2009,09,30,05,15,5.00
2009,09,30,05,16,5.00
2009,09,30,05,17,5.00
2009,09,30,05,18,5.00
2009,09,30,05,19,5.00
2009,09,30,05,20,5.00
2009,09,30,05,21,5.00
2009,09,30,05,22,5.10
2009,09,30,05,23,5.10
2009,09,30,05,24,5.00
2009,09,30,05,25,4.80
2009,09,30,05,26,4.60
2009,09,30,05,27,4.50
2009,09,30,05,28,4.40
2009,09,30,05,29,4.40
2009,09,30,05,30,4.60
2009,09,30,05,31,4.60
2009,09,30,05,32,4.70
2009,09,30,05,33,4.60
2009,09,30,05,34,4.50
2009,09,30,05,35,4.40
2009,09,30,05,36,4.30
2009,09,30,05,37,4.20
2009,09,30,05,38,4.20
2009,09,30,05,39,4.20
2009,09,30,05,40,4.30
2009,09,30,05,41,4.30
2009,09,30,05,42,4.30
2009,09,30,05,43,4.30
2009,09,30,05,44,4.30
2009,09,30,05,45,4.30
2009,09,30,05,46,4.30
2009,09,30,05,47,4.30
2009,09,30,05,48,4.30
2009,09,30,05,49,4.30
2009,09,30,05,50,4.30
2009,09,30,05,51,4.30
2009,09,30,05,52,4.20
2009,09,30,05,53,4.10
2009,09,30,05,54,4.00
2009,09,30,05,55,3.90
2009,09,30,05,56,3.80
2009,09,30,05,57,3.80
2009,09,30,05,58,3.80
2009,09,30,05,59,3.80
2009,09,30,06,00,3.80
2009,09,30,06,01,3.90
2009,09,30,06,02,4.10
2009,09,30,06,03,4.20
2009,09,30,06,04,4.10
2009,09,30,06,05,4.00
2009,09,30,06,06,4.00
2009,09,30,06,07,4.00
2009,09,30,06,08,3.90
2009,09,30,06,09,3.80
2009,09,30,06,10,3.80
2009,09,30,06,11,3.70
2009,09,30,06,12,3.70
2009,09,30,06,13,3.80
2009,09,30,06,14,3.80
2009,09,30,06,15,3.90
2009,09,30,06,16,3.90
2009,09,30,06,17,3.90
2009,09,30,06,18,3.90
2009,09,30,06,19,4.00
2009,09,30,06,20,4.00
2009,09,30,06,21,4.00
2009,09,30,06,22,4.00
2009,09,30,06,23,3.90
2009,09,30,06,24,3.90
2009,09,30,06,25,3.90
2009,09,30,06,26,3.80
2009,09,30,06,27,3.80
2009,09,30,06,28,3.80
2009,09,30,06,29,3.80
2009,09,30,06,30,3.80
2009,09,30,06,31,3.80
2009,09,30,06,32,3.80
2009,09,30,06,33,3.80
2009,09,30,06,34,3.80
2009,09,30,06,35,3.80
2009,09,30,06,36,3.80
2009,09,30,06,37,3.80
2009,09,30,06,38,3.80
2009,09,30,06,39,3.80
2009,09,30,06,40,3.80
2009,09,30,06,41,3.70
2009,09,30,06,42,3.60
2009,09,30,06,43,3.50
2009,09,30,06,44,3.40
2009,09,30,06,45,3.30
2009,09,30,06,46,3.20
2009,09,30,06,47,3.20
2009,09,30,06,48,3.20
2009,09,30,06,49,3.10
2009,09,30,06,50,3.10
2009,09,30,06,51,3.10
2009,09,30,06,52,3.00
2009,09,30,06,53,3.00
2009,09,30,06,54,3.00
2009,09,30,06,55,3.00
2009,09,30,06,56,3.10
2009,09,30,06,57,3.00
2009,09,30,06,58,3.10
2009,09,30,06,59,3.10
2009,09,30,07,00,3.10
2009,09,30,07,01,3.00
2009,09,30,07,02,3.10
2009,09,30,07,03,3.20
2009,09,30,07,04,3.20
2009,09,30,07,05,3.20
2009,09,30,07,06,3.20
2009,09,30,07,07,3.20
2009,09,30,07,08,3.30
2009,09,30,07,09,3.30
2009,09,30,07,10,3.40
2009,09,30,07,11,3.40
2009,09,30,07,12,3.40
2009,09,30,07,13,3.50
2009,09,30,07,14,3.50
2009,09,30,07,15,3.40
2009,09,30,07,16,3.40
2009,09,30,07,17,3.30
2009,09,30,07,18,3.20
2009,09,30,07,19,3.30
2009,09,30,07,20,3.30
2009,09,30,07,21,3.30
2009,09,30,07,22,3.40
2009,09,30,07,23,3.50
2009,09,30,07,24,3.60
2009,09,30,07,25,3.60
2009,09,30,07,26,3.50
2009,09,30,07,27,3.50
2009,09,30,07,28,3.40
2009,09,30,07,29,3.40
2009,09,30,07,30,3.30
2009,09,30,07,31,3.30
2009,09,30,07,32,3.20
2009,09,30,07,33,3.20
2009,09,30,07,34,3.10
2009,09,30,07,35,3.20
2009,09,30,07,36,3.20
2009,09,30,07,37,3.20
2009,09,30,07,38,3.30
2009,09,30,07,39,3.30
2009,09,30,07,40,3.20
2009,09,30,07,41,3.20
2009,09,30,07,42,3.20
2009,09,30,07,43,3.20
2009,09,30,07,44,3.20
2009,09,30,07,45,3.20
2009,09,30,07,46,3.30
2009,09,30,07,47,3.30
2009,09,30,07,48,3.40
2009,09,30,07,49,3.50
2009,09,30,07,50,3.50
2009,09,30,07,51,3.50
2009,09,30,07,52,3.40
2009,09,30,07,53,3.40
2009,09,30,07,54,3.40
2009,09,30,07,55,3.50
2009,09,30,07,56,3.50
2009,09,30,07,57,3.50
2009,09,30,07,58,3.60
2009,09,30,07,59,3.60
2009,09,30,08,00,3.60
2009,09,30,08,01,3.70
2009,09,30,08,02,3.80
2009,09,30,08,03,3.90
2009,09,30,08,04,4.10
2009,09,30,08,05,4.20
2009,09,30,08,06,4.20
2009,09,30,08,07,4.10
2009,09,30,08,08,4.10
2009,09,30,08,09,4.20
2009,09,30,08,10,4.30
2009,09,30,08,11,4.30
2009,09,30,08,12,4.30
2009,09,30,08,13,4.30
2009,09,30,08,14,4.40
2009,09,30,08,15,4.50
2009,09,30,08,16,4.60
2009,09,30,08,17,4.60
2009,09,30,08,18,4.50
2009,09,30,08,19,4.50
2009,09,30,08,20,4.50
2009,09,30,08,21,4.60
2009,09,30,08,22,4.70
2009,09,30,08,23,4.70
2009,09,30,08,24,4.80
2009,09,30,08,25,4.80
2009,09,30,08,26,4.90
2009,09,30,08,27,4.90
2009,09,30,08,28,4.90
2009,09,30,08,29,4.90
2009,09,30,08,30,5.00
2009,09,30,08,31,5.00
2009,09,30,08,32,5.10
2009,09,30,08,33,5.10
2009,09,30,08,34,5.30
2009,09,30,08,35,5.30
2009,09,30,08,36,5.40
2009,09,30,08,37,5.40
2009,09,30,08,38,5.50
2009,09,30,08,39,5.60
2009,09,30,08,40,5.70
2009,09,30,08,41,5.70
2009,09,30,08,42,5.80
2009,09,30,08,43,5.90
2009,09,30,08,44,6.10
2009,09,30,08,45,6.20
2009,09,30,08,46,6.30
2009,09,30,08,47,6.30
2009,09,30,08,48,6.40
2009,09,30,08,49,6.50
2009,09,30,08,50,6.60
2009,09,30,08,51,6.70
2009,09,30,08,52,6.80
2009,09,30,08,53,6.80
2009,09,30,08,54,6.90
2009,09,30,08,55,7.00
2009,09,30,08,56,7.00
2009,09,30,08,57,7.20
2009,09,30,08,58,7.20
2009,09,30,08,59,7.20
2009,09,30,09,00,7.30
2009,09,30,09,01,7.40
2009,09,30,09,02,7.50
2009,09,30,09,03,7.50
2009,09,30,09,04,7.60
2009,09,30,09,05,7.70
2009,09,30,09,06,7.80
2009,09,30,09,07,7.90
2009,09,30,09,08,7.90
2009,09,30,09,09,8.00
2009,09,30,09,10,8.10
2009,09,30,09,11,8.20
2009,09,30,09,12,8.20
2009,09,30,09,13,8.20
2009,09,30,09,14,8.30
2009,09,30,09,15,8.40
2009,09,30,09,16,8.50
2009,09,30,09,17,8.60
2009,09,30,09,18,8.70
2009,09,30,09,19,8.80
2009,09,30,09,20,8.90
2009,09,30,09,21,9.00
2009,09,30,09,22,9.10
2009,09,30,09,23,9.20
2009,09,30,09,24,9.20
2009,09,30,09,25,9.30
2009,09,30,09,26,9.40
2009,09,30,09,27,9.50
2009,09,30,09,28,9.60
2009,09,30,09,29,9.70
2009,09,30,09,30,9.70
2009,09,30,09,31,9.80
2009,09,30,09,32,9.90
2009,09,30,09,33,10.00
2009,09,30,09,34,10.00
2009,09,30,09,35,10.10
2009,09,30,09,36,10.10
2009,09,30,09,37,10.20
2009,09,30,09,38,10.20
2009,09,30,09,39,10.30
2009,09,30,09,40,10.30
2009,09,30,09,41,10.40
2009,09,30,09,42,10.40
2009,09,30,09,43,10.40
2009,09,30,09,44,10.40
2009,09,30,09,45,10.40
2009,09,30,09,46,10.30
2009,09,30,09,47,10.40
2009,09,30,09,48,10.40
2009,09,30,09,49,10.40
2009,09,30,09,50,10.50
2009,09,30,09,51,10.60
2009,09,30,09,52,10.60
2009,09,30,09,53,10.70
2009,09,30,09,54,10.80
2009,09,30,09,55,10.80
2009,09,30,09,56,10.80
2009,09,30,09,57,10.90
2009,09,30,09,58,10.90
2009,09,30,09,59,11.00
2009,09,30,10,00,11.10
2009,09,30,10,01,11.10
2009,09,30,10,02,11.10
2009,09,30,10,03,11.10
2009,09,30,10,04,11.10
2009,09,30,10,05,11.10
2009,09,30,10,06,11.00
2009,09,30,10,07,11.00
2009,09,30,10,08,10.90
2009,09,30,10,09,10.80
2009,09,30,10,10,10.80
2009,09,30,10,11,10.70
2009,09,30,10,12,10.70
2009,09,30,10,13,10.70
2009,09,30,10,14,10.70
2009,09,30,10,15,10.70
2009,09,30,10,16,10.70
2009,09,30,10,17,10.70
2009,09,30,10,18,10.80
2009,09,30,10,19,10.80
2009,09,30,10,20,10.80
2009,09,30,10,21,10.80
2009,09,30,10,22,10.90
2009,09,30,10,23,10.90
2009,09,30,10,24,10.90
2009,09,30,10,25,11.00
2009,09,30,10,26,11.00
2009,09,30,10,27,11.10
2009,09,30,10,28,11.10
2009,09,30,10,29,11.10
2009,09,30,10,30,11.20
2009,09,30,10,31,11.20
2009,09,30,10,32,11.20
2009,09,30,10,33,11.10
2009,09,30,10,34,11.10
2009,09,30,10,35,11.10
2009,09,30,10,36,11.10
2009,09,30,10,37,11.10
2009,09,30,10,38,11.10
2009,09,30,10,39,11.10
2009,09,30,10,40,11.20
2009,09,30,10,41,11.30
2009,09,30,10,42,11.50
2009,09,30,10,43,11.60
2009,09,30,10,44,11.50
2009,09,30,10,45,11.40
2009,09,30,10,46,11.40
2009,09,30,10,47,11.50
2009,09,30,10,48,11.50
2009,09,30,10,49,11.60
2009,09,30,10,50,11.50
2009,09,30,10,51,11.40
2009,09,30,10,52,11.30
2009,09,30,10,53,11.20
2009,09,30,10,54,11.20
2009,09,30,10,55,11.30
2009,09,30,10,56,11.30
2009,09,30,10,57,11.40
2009,09,30,10,58,11.50
2009,09,30,10,59,11.60
2009,09,30,11,00,11.60
2009,09,30,11,01,11.70
2009,09,30,11,02,11.80
2009,09,30,11,03,11.90
2009,09,30,11,04,11.90
2009,09,30,11,05,11.90
2009,09,30,11,06,11.90
2009,09,30,11,07,11.90
2009,09,30,11,08,11.80
2009,09,30,11,09,11.70
2009,09,30,11,10,11.60
2009,09,30,11,11,11.50
2009,09,30,11,12,11.50
2009,09,30,11,13,11.50
2009,09,30,11,14,11.40
2009,09,30,11,15,11.30
2009,09,30,11,16,11.30
2009,09,30,11,17,11.30
2009,09,30,11,18,11.30
2009,09,30,11,19,11.30
2009,09,30,11,20,11.30
2009,09,30,11,21,11.30
2009,09,30,11,22,11.30
2009,09,30,11,23,11.20
2009,09,30,11,24,11.10
2009,09,30,11,25,11.10
2009,09,30,11,26,11.10
2009,09,30,11,27,11.00
2009,09,30,11,28,11.00
2009,09,30,11,29,11.00
2009,09,30,11,30,11.10
2009,09,30,11,31,11.10
2009,09,30,11,32,11.20
2009,09,30,11,33,11.20
2009,09,30,11,34,11.30
2009,09,30,11,35,11.30
2009,09,30,11,36,11.30
2009,09,30,11,37,11.40
2009,09,30,11,38,11.50
2009,09,30,11,39,11.60
2009,09,30,11,40,11.80
2009,09,30,11,41,11.90
2009,09,30,11,42,11.90
2009,09,30,11,43,11.80
2009,09,30,11,44,11.70
2009,09,30,11,45,11.60
2009,09,30,11,46,11.60
2009,09,30,11,47,11.50
2009,09,30,11,48,11.40
2009,09,30,11,49,11.40
2009,09,30,11,50,11.40
2009,09,30,11,51,11.50
2009,09,30,11,52,11.40
2009,09,30,11,53,11.40
2009,09,30,11,54,11.30
2009,09,30,11,55,11.30
2009,09,30,11,56,11.30
2009,09,30,11,57,11.30
2009,09,30,11,58,11.30
2009,09,30,11,59,11.30
2009,09,30,12,00,11.20
2009,09,30,12,01,11.20
2009,09,30,12,02,11.20
2009,09,30,12,03,11.30
2009,09,30,12,04,11.30
2009,09,30,12,05,11.30
2009,09,30,12,06,11.30
2009,09,30,12,07,11.40
2009,09,30,12,08,11.30
2009,09,30,12,09,11.30
2009,09,30,12,10,11.30
2009,09,30,12,11,11.30
2009,09,30,12,12,11.20
2009,09,30,12,13,11.20
2009,09,30,12,14,11.20
2009,09,30,12,15,11.10
2009,09,30,12,16,11.10
2009,09,30,12,17,11.10
2009,09,30,12,18,11.10
2009,09,30,12,19,11.10
2009,09,30,12,20,11.00
2009,09,30,12,21,10.90
2009,09,30,12,22,10.90
2009,09,30,12,23,10.90
2009,09,30,12,24,10.90
2009,09,30,12,25,10.90
2009,09,30,12,26,10.90
2009,09,30,12,27,11.00
2009,09,30,12,28,11.00
2009,09,30,12,29,10.90
2009,09,30,12,30,11.00
2009,09,30,12,31,11.00
2009,09,30,12,32,11.10
2009,09,30,12,33,11.20
2009,09,30,12,34,11.30
2009,09,30,12,35,11.30
2009,09,30,12,36,11.30
2009,09,30,12,37,11.20
2009,09,30,12,38,11.20
2009,09,30,12,39,11.20
2009,09,30,12,40,11.10
2009,09,30,12,41,11.10
2009,09,30,12,42,11.10
2009,09,30,12,43,11.20
2009,09,30,12,44,11.20
2009,09,30,12,45,11.20
2009,09,30,12,46,11.20
2009,09,30,12,47,11.30
2009,09,30,12,48,11.30
2009,09,30,12,49,11.30
2009,09,30,12,50,11.20
2009,09,30,12,51,11.20
2009,09,30,12,52,11.20
2009,09,30,12,53,11.20
2009,09,30,12,54,11.20
2009,09,30,12,55,11.20
2009,09,30,12,56,11.20
2009,09,30,12,57,11.20
2009,09,30,12,58,11.30
2009,09,30,12,59,11.30
2009,09,30,13,00,11.30
2009,09,30,13,01,11.30
2009,09,30,13,02,11.40
2009,09,30,13,03,11.40
2009,09,30,13,04,11.40
2009,09,30,13,05,11.40
2009,09,30,13,06,11.40
2009,09,30,13,07,11.40
2009,09,30,13,08,11.40
2009,09,30,13,09,11.40
2009,09,30,13,10,11.40
2009,09,30,13,11,11.40
2009,09,30,13,12,11.40
2009,09,30,13,13,11.30
2009,09,30,13,14,11.20
2009,09,30,13,15,11.20
2009,09,30,13,16,11.20
2009,09,30,13,17,11.20
2009,09,30,13,18,11.30
2009,09,30,13,19,11.30
2009,09,30,13,20,11.30
2009,09,30,13,21,11.30
2009,09,30,13,22,11.20
2009,09,30,13,23,11.30
2009,09,30,13,24,11.30
2009,09,30,13,25,11.30
2009,09,30,13,26,11.30
2009,09,30,13,27,11.30
2009,09,30,13,28,11.40
2009,09,30,13,29,11.40
2009,09,30,13,30,11.40
2009,09,30,13,31,11.30
2009,09,30,13,32,11.30
2009,09,30,13,33,11.30
2009,09,30,13,34,11.30
2009,09,30,13,35,11.30
2009,09,30,13,36,11.30
2009,09,30,13,37,11.30
2009,09,30,13,38,11.30
2009,09,30,13,39,11.30
2009,09,30,13,40,11.30
2009,09,30,13,41,11.30
2009,09,30,13,42,11.30
2009,09,30,13,43,11.30
2009,09,30,13,44,11.30
2009,09,30,13,45,11.20
2009,09,30,13,46,11.20
2009,09,30,13,47,11.20
2009,09,30,13,48,11.30
2009,09,30,13,49,11.30
2009,09,30,13,50,11.40
2009,09,30,13,51,11.40
2009,09,30,13,52,11.40
2009,09,30,13,53,11.40
2009,09,30,13,54,11.40
2009,09,30,13,55,11.40
2009,09,30,13,56,11.40
2009,09,30,13,57,11.40
2009,09,30,13,58,11.40
2009,09,30,13,59,11.40
2009,09,30,14,00,11.40
2009,09,30,14,01,11.50
2009,09,30,14,02,11.50
2009,09,30,14,03,11.50
2009,09,30,14,04,11.50
2009,09,30,14,05,11.50
2009,09,30,14,06,11.50
2009,09,30,14,07,11.50
2009,09,30,14,08,11.60
2009,09,30,14,09,11.60
2009,09,30,14,10,11.60
2009,09,30,14,11,11.60
2009,09,30,14,12,11.70
2009,09,30,14,13,11.70
2009,09,30,14,14,11.60
2009,09,30,14,15,11.60
2009,09,30,14,16,11.60
2009,09,30,14,17,11.60
2009,09,30,14,18,11.60
2009,09,30,14,19,11.70
2009,09,30,14,20,11.70
2009,09,30,14,21,11.70
2009,09,30,14,22,11.80
2009,09,30,14,23,11.80
2009,09,30,14,24,11.80
2009,09,30,14,25,11.80
2009,09,30,14,26,11.90
2009,09,30,14,27,11.90
2009,09,30,14,28,11.80
2009,09,30,14,29,11.90
2009,09,30,14,30,11.90
2009,09,30,14,31,11.90
2009,09,30,14,32,11.90
2009,09,30,14,33,12.00
2009,09,30,14,34,12.10
2009,09,30,14,35,12.10
2009,09,30,14,36,12.10
2009,09,30,14,37,12.00
2009,09,30,14,38,11.90
2009,09,30,14,39,11.90
2009,09,30,14,40,11.90
2009,09,30,14,41,11.80
2009,09,30,14,42,11.90
2009,09,30,14,43,11.90
2009,09,30,14,44,11.90
2009,09,30,14,45,11.90
2009,09,30,14,46,12.00
2009,09,30,14,47,12.10
2009,09,30,14,48,12.10
2009,09,30,14,49,12.10
2009,09,30,14,50,12.20
2009,09,30,14,51,12.20
2009,09,30,14,52,12.20
2009,09,30,14,53,12.20
2009,09,30,14,54,12.20
2009,09,30,14,55,12.30
2009,09,30,14,56,12.40
2009,09,30,14,57,12.50
2009,09,30,14,58,12.50
2009,09,30,14,59,12.40
2009,09,30,15,00,12.30
2009,09,30,15,01,12.30
2009,09,30,15,02,12.20
2009,09,30,15,03,12.20
2009,09,30,15,04,12.20
2009,09,30,15,05,12.10
2009,09,30,15,06,12.20
2009,09,30,15,07,12.30
2009,09,30,15,08,12.30
2009,09,30,15,09,12.40
2009,09,30,15,10,12.40
2009,09,30,15,11,12.40
2009,09,30,15,12,12.40
2009,09,30,15,13,12.30
2009,09,30,15,14,12.30
2009,09,30,15,15,12.30
2009,09,30,15,16,12.20
2009,09,30,15,17,12.20
2009,09,30,15,18,12.20
2009,09,30,15,19,12.10
2009,09,30,15,20,12.10
2009,09,30,15,21,12.10
2009,09,30,15,22,12.00
2009,09,30,15,23,12.00
2009,09,30,15,24,11.90
2009,09,30,15,25,11.90
2009,09,30,15,26,11.90
2009,09,30,15,27,11.90
2009,09,30,15,28,11.90
2009,09,30,15,29,11.90
2009,09,30,15,30,12.00
2009,09,30,15,31,12.00
2009,09,30,15,32,12.00
2009,09,30,15,33,12.00
2009,09,30,15,34,12.00
2009,09,30,15,35,12.00
2009,09,30,15,36,12.10
2009,09,30,15,37,12.10
2009,09,30,15,38,12.20
2009,09,30,15,39,12.20
2009,09,30,15,40,12.20
2009,09,30,15,41,12.30
2009,09,30,15,42,12.30
2009,09,30,15,43,12.30
2009,09,30,15,44,12.30
2009,09,30,15,45,12.30
2009,09,30,15,46,12.30
2009,09,30,15,47,12.20
2009,09,30,15,48,12.20
2009,09,30,15,49,12.10
2009,09,30,15,50,12.10
2009,09,30,15,51,12.10
2009,09,30,15,52,12.10
2009,09,30,15,53,12.10
2009,09,30,15,54,12.20
2009,09,30,15,55,12.30
2009,09,30,15,56,12.30
2009,09,30,15,57,12.30
2009,09,30,15,58,12.30
2009,09,30,15,59,12.20
2009,09,30,16,00,12.20
2009,09,30,16,01,12.20
2009,09,30,16,02,12.30
2009,09,30,16,03,12.30
2009,09,30,16,04,12.30
2009,09,30,16,05,12.30
2009,09,30,16,06,12.30
2009,09,30,16,07,12.30
2009,09,30,16,08,12.30
2009,09,30,16,09,12.30
2009,09,30,16,10,12.30
2009,09,30,16,11,12.20
2009,09,30,16,12,12.20
2009,09,30,16,13,12.20
2009,09,30,16,14,12.20
2009,09,30,16,15,12.20
2009,09,30,16,16,12.10
2009,09,30,16,17,12.10
2009,09,30,16,18,12.10
2009,09,30,16,19,12.00
2009,09,30,16,20,12.00
2009,09,30,16,21,11.90
2009,09,30,16,22,11.90
2009,09,30,16,23,11.90
2009,09,30,16,24,11.80
2009,09,30,16,25,11.80
2009,09,30,16,26,11.80
2009,09,30,16,27,11.80
2009,09,30,16,28,11.80
2009,09,30,16,29,11.80
2009,09,30,16,30,11.70
2009,09,30,16,31,11.70
2009,09,30,16,32,11.80
2009,09,30,16,33,11.80
2009,09,30,16,34,11.80
2009,09,30,16,35,11.80
2009,09,30,16,36,11.80
2009,09,30,16,37,11.80
2009,09,30,16,38,11.80
2009,09,30,16,39,11.80
2009,09,30,16,40,11.80
2009,09,30,16,41,11.80
2009,09,30,16,42,11.80
2009,09,30,16,43,11.80
2009,09,30,16,44,11.80
2009,09,30,16,45,11.80
2009,09,30,16,46,11.80
2009,09,30,16,47,11.80
2009,09,30,16,48,11.80
2009,09,30,16,49,11.80
2009,09,30,16,50,11.80
2009,09,30,16,51,11.80
2009,09,30,16,52,11.80
2009,09,30,16,53,11.80
2009,09,30,16,54,11.80
2009,09,30,16,55,11.80
2009,09,30,16,56,11.80
2009,09,30,16,57,11.80
2009,09,30,16,58,11.80
2009,09,30,16,59,11.80
2009,09,30,17,00,11.80
2009,09,30,17,01,11.80
2009,09,30,17,02,11.80
2009,09,30,17,03,11.80
2009,09,30,17,04,11.90
2009,09,30,17,05,11.90
2009,09,30,17,06,11.90
2009,09,30,17,07,11.90
2009,09,30,17,08,11.90
2009,09,30,17,09,11.90
2009,09,30,17,10,12.00
2009,09,30,17,11,12.00
2009,09,30,17,12,12.00
2009,09,30,17,13,12.00
2009,09,30,17,14,12.00
2009,09,30,17,15,12.00
2009,09,30,17,16,12.00
2009,09,30,17,17,12.00
2009,09,30,17,18,12.10
2009,09,30,17,19,12.10
2009,09,30,17,20,12.10
2009,09,30,17,21,12.10
2009,09,30,17,22,12.10
2009,09,30,17,23,12.20
2009,09,30,17,24,12.20
2009,09,30,17,25,12.20
2009,09,30,17,26,12.20
2009,09,30,17,27,12.10
2009,09,30,17,28,12.20
2009,09,30,17,29,12.20
2009,09,30,17,30,12.20
2009,09,30,17,31,12.30
2009,09,30,17,32,12.20
2009,09,30,17,33,12.20
2009,09,30,17,34,12.20
2009,09,30,17,35,12.20
2009,09,30,17,36,12.20
2009,09,30,17,37,12.20
2009,09,30,17,38,12.20
2009,09,30,17,39,12.20
2009,09,30,17,40,12.20
2009,09,30,17,41,12.20
2009,09,30,17,42,12.20
2009,09,30,17,43,12.20
2009,09,30,17,44,12.20